Location: ????????
(56.1167°N, 38.6333°E)
Time: 22:01:39
(UTC+00:00)

CSL-04 Rocket - Pass Details

Date: 18 November 2025
Orbit: 805 x 857 km, 98.7° (Epoch: 14 December)

Event Time Altitude Azimuth Distance (km) Brightness Sun altitude
Exits shadow 16:36:43 45° 8° (N) 1,140 4.3 -27.9°
Drops below altitude 10° 16:40:39 10° 347° (NNW) 2,491 6.3 -28.5°
Sets 16:43:04 0° 345° (NNW) 3,436 7.2 -28.8°
